Home   Weather   Fairbanks   Past weeks

Flag for USA Past Weather in Fairbanks, Alaska, USA — Yesterday and Last 2 Weeks

Now
-20 °F

Clear.


Feels Like: -20 °F
Forecast: -27 / -16 °F
Wind: No wind

Location: Wainwright U. S. Army Airfield

Current Time: Dec 9, 2016 at 10:22:52 am

Latest Report: Dec 9, 2016 at 9:59 am


Visibility: 10 mi

Pressure: 30.48 "Hg

Humidity: 75%

Dew Point: -26 °F

Location of FairbanksLocation

Past Weather in Fairbanks — Graph

°F

Fairbanks Temperature Yesterday

Maximum temperature yesterday: -5 °F (at 4:58 pm)
Minimum temperature yesterday: -17 °F (at 10:58 pm)
Average temperature yesterday: -10 °F

High & Low Weather Summary for the Past Weeks

 TemperatureHumidityPressure
High4 °F (Nov 25, 8:58 pm)86% (Nov 26, 7:58 am)30.78 "Hg (Nov 26, 7:58 am)
Low-36 °F (Dec 4, 10:58 pm)68% (Dec 4, 7:58 am)29.19 "Hg (Nov 27, 1:58 am)
Average-12 °F77%30.01 "Hg
* Reported Nov 24 8:58 am — Dec 9 8:58 am, Fairbanks, Weather by CustomWeather, © 2016

Note: Actual official high and low records may vary slightly from our data, if they occured in-between our weather recording intervals... More about our weather records

Advertising

Fairbanks Weather History for the Previous 24 Hours

Scroll right to see more
 ConditionsComfort  
Time TempWeatherWind HumidityBarometerVisibility
8:58 am
Fri, Dec 9
-19 °FClear.No wind78%30.47 "Hg9 mi
7:58 am-11 °FClear.No wind72%30.45 "Hg10 mi
6:58 am-7 °FClear.No wind69%30.45 "Hg10 mi
5:58 am-12 °FClear.5 mph75%30.45 "Hg10 mi
4:58 amN/AClear.No windN/A30.45 "Hg10 mi
3:58 am-16 °FClear.6 mph74%30.47 "Hg10 mi
2:58 am-16 °FClear.No wind79%30.48 "Hg10 mi
1:58 am-21 °FClear.No wind79%30.50 "Hg10 mi
12:58 am-19 °FClear.No wind78%30.50 "Hg10 mi
11:58 pm
Thu, Dec 8
-12 °FClear.No wind75%30.51 "Hg10 mi
10:58 pm-17 °FClear.3 mph77%30.51 "Hg10 mi
9:58 pm-13 °FClear.No wind78%30.52 "Hg10 mi
8:58 pm-14 °FClear.No wind75%30.53 "Hg10 mi
7:58 pm-16 °FClear.No wind77%30.54 "Hg10 mi
6:58 pm-10 °FClear.5 mph75%30.55 "Hg10 mi
5:58 pm-6 °FClear.8 mph70%30.55 "Hg10 mi
4:58 pm-5 °FClear.No wind72%30.56 "Hg10 mi
3:58 pmN/AClear.5 mphN/A30.56 "Hg10 mi
2:58 pm-6 °FClear.10 mph73%30.59 "Hg10 mi
1:58 pm-11 °FSunny.5 mph74%30.60 "Hg10 mi
12:58 pm-6 °FSunny.No wind70%30.61 "Hg9 mi
11:58 am-9 °FSunny.5 mph73%30.62 "Hg9 mi
10:58 am-8 °FSunny.6 mph74%30.62 "Hg10 mi
Weather by CustomWeather, © 2016

See weather overviewHow to use our weather pages